Satellite-Ground Cal/Val Site Overpasses Predictions

Prediction of Satellite NPP Overpassing Cal/Val Site: Antarctic Dome C

Ground Cal/Val Site Location: Latitude: -75.10, Longitude: 123.35; Satellite-Ground Site NADIR distance within 100 km.

Table of predicted overpasses for the next 14.0 days since TLE Epoch: 5/11/2015
Interval Starting Time Ending Time Minimum Distance Time Minimum Distance (km)
1 05/11/2015 14:53:23 05/11/2015 14:53:52 05/11/2015 14:53:38 20.61
2 05/13/2015 07:36:13 05/13/2015 07:36:43 05/13/2015 07:36:28 1.83
3 05/16/2015 14:59:40 05/16/2015 15:00:09 05/16/2015 14:59:54 16.44
4 05/17/2015 14:40:59 05/17/2015 14:41:11 05/17/2015 14:41:05 90.45
5 05/18/2015 07:42:30 05/18/2015 07:42:57 05/18/2015 07:42:43 38.27
6 05/19/2015 07:23:44 05/19/2015 07:24:04 05/19/2015 07:23:54 71.80
7 05/21/2015 15:05:58 05/21/2015 15:06:23 05/21/2015 15:06:10 53.88
8 05/22/2015 14:47:08 05/22/2015 14:47:32 05/22/2015 14:47:20 55.18
9 05/23/2015 07:48:49 05/23/2015 07:49:09 05/23/2015 07:48:59 73.79
